This demonstration page uses our WeatherBlox Daily Observations layout. Learn more.

Left ArrowRight Arrow

39.51506, -84.39828

Hourly Observations for April 12, 2017

Temp ( °F °C ) Dew Point ( °F °C ) Humidity (%) Winds ( mph kmh ) Pressure ( in mb ) Visibility ( mi km ) Precip ( " mm )
12:15 am 00:15 Clear 55 12.5 47 8.6 77 77 Calm 30.27 1025 10 16 0.00 0.00
12:35 am 00:35 Clear 55 12.5 46 7.5 72 72 N 5 7 30.30 1026 10 16 0.00 0.00
12:55 am 00:55 Clear 55 12.5 44 6.9 69 69 N 5 7 30.30 1026 10 16 0.00 0.00
1:15 am 01:15 Clear 55 12.5 44 6.9 69 69 N 3 6 30.30 1026 10 16 0.00 0.00
1:35 am 01:35 Clear 55 12.5 45 7 69 69 N 3 6 30.30 1026 10 16 0.00 0.00
1:55 am 01:55 Clear 55 12.5 45 7 69 69 N 5 7 30.30 1026 10 16 0.00 0.00
2:15 am 02:15 Clear 55 12.5 44 6.8 68 68 N 6 9 30.30 1026 10 16 0.00 0.00
2:35 am 02:35 Clear 52 11 42 5.7 70 70 Calm 30.30 1026 10 16 0.00 0.00
2:55 am 02:55 Clear 52 11 42 5.7 70 70 Calm 30.30 1026 10 16 0.00 0.00
3:15 am 03:15 Clear 51 10.8 42 5.6 71 71 Calm 30.30 1026 10 16 0.00 0.00
3:35 am 03:35 Clear 49 9.6 43 5.9 78 78 Calm 30.30 1026 10 16 0.00 0.00
3:55 am 03:55 Clear 49 9.6 43 6.1 79 79 Calm 30.30 1026 10 16 0.00 0.00
4:15 am 04:15 Clear 49 9.6 44 6.5 81 81 Calm 30.30 1026 10 16 0.00 0.00
4:35 am 04:35 Clear 49 9.6 44 6.6 82 82 Calm 30.33 1027 10 16 0.00 0.00
4:55 am 04:55 Clear 47 8.2 42 5.5 83 83 Calm 30.33 1027 10 16 0.00 0.00
5:15 am 05:15 Clear 44 6.6 39 3.9 83 83 Calm 30.33 1027 7 11 0.00 0.00
5:35 am 05:35 Clear 44 6.6 39 4 84 84 Calm 30.33 1027 N/A 0.00 0.00
5:55 am 05:55 Clear 42 5.5 37 2.8 83 83 Calm 30.36 1028 N/A 0.00 0.00
6:15 am 06:15 Clear 42 5.8 38 3.2 84 84 Calm 30.36 1028 7 11 0.00 0.00
6:35 am 06:35 Clear 42 5.5 37 3 84 84 Calm 30.36 1028 7 11 0.00 0.00
6:55 am 06:55 Clear 41 4.8 37 2.5 85 85 Calm 30.36 1028 10 16 0.00 0.00
7:15 am 07:15 Sunny 40 4.3 36 2 85 85 Calm 30.36 1028 10 16 0.00 0.00
7:35 am 07:35 undefined 40 4.6 36 2.2 85 85 Calm 30.36 1028 N/A 0.00 0.00
7:55 am 07:55 undefined 41 5.2 37 2.8 85 85 Calm 30.39 1029 N/A 0.00 0.00
8:15 am 08:15 undefined 43 6.1 39 3.7 85 85 Calm 30.39 1029 N/A 0.00 0.00
8:35 am 08:35 Sunny 47 8.2 42 5.5 83 83 Calm 30.36 1028 N/A 0.00 0.00
8:55 am 08:55 Sunny 49 9.6 43 6.3 80 80 Calm 30.36 1028 10 16 0.00 0.00
9:15 am 09:15 Sunny 52 10.9 43 6.1 72 72 Calm 30.36 1028 10 16 0.00 0.00
9:35 am 09:35 Sunny 55 12.5 41 5.2 61 61 N 3 6 30.39 1029 10 16 0.00 0.00
9:55 am 09:55 Sunny 55 12.5 40 4.2 57 57 NW 6 9 30.39 1029 10 16 0.00 0.00
10:15 am 10:15 Sunny 55 12.7 39 3.7 55 55 NNW 9 15 30.39 1029 10 16 0.00 0.00
10:35 am 10:35 Sunny 55 12.9 37 2.9 51 51 NW 3 6 30.39 1029 10 16 0.00 0.00
10:55 am 10:55 Sunny 57 13.8 39 4 52 52 N 7 11 30.39 1029 10 16 0.00 0.00
11:15 am 11:15 Sunny 57 13.8 38 3.2 49 49 NNE 5 7 30.39 1029 10 16 0.00 0.00
11:35 am 11:35 Sunny 58 14.2 37 2.8 46 46 Calm 30.39 1029 10 16 0.00 0.00
11:55 am 11:55 Sunny 60 15.3 39 4 47 47 Calm 30.39 1029 10 16 0.00 0.00
12:15 pm 12:15 Sunny 60 15.3 39 3.7 46 46 Calm 30.39 1029 10 16 0.00 0.00
12:35 pm 12:35 Sunny 60 15.3 37 2.7 43 43 Calm 30.39 1029 10 16 0.00 0.00
12:55 pm 12:55 Sunny 61 16 38 3.1 42 42 NE 5 7 30.39 1029 7 11 0.00 0.00
1:15 pm 13:15 Sunny 61 16.2 37 2.8 41 41 NE 7 11 30.39 1029 10 16 0.00 0.00
1:35 pm 13:35 Sunny 62 16.6 37 2.6 39 39 Calm 30.39 1029 10 16 0.00 0.00
1:55 pm 13:55 Sunny 63 17.3 37 2.7 38 38 NW 3 6 30.39 1029 10 16 0.00 0.00
2:15 pm 14:15 Sunny 64 18 37 2.5 36 36 N 5 7 30.39 1029 10 16 0.00 0.00
2:35 pm 14:35 Sunny 65 18.2 37 2.8 36 36 N 6 9 30.39 1029 10 16 0.00 0.00
2:55 pm 14:55 Sunny 66 18.7 34 1 31 31 NW 6 9 30.33 1027 10 16 0.00 0.00
3:15 pm 15:15 Sunny 67 19.5 34 1.3 30 30 N 6 9 30.33 1027 10 16 0.00 0.00
3:35 pm 15:35 Sunny 67 19.5 34 1.1 29 29 Calm 30.33 1027 10 16 0.00 0.00
3:55 pm 15:55 Sunny 67 19.5 30 -1 25 25 Calm 30.33 1027 10 16 0.00 0.00
4:15 pm 16:15 Sunny 69 20.8 32 0.1 25 25 Calm 30.33 1027 10 16 0.00 0.00
4:35 pm 16:35 Sunny 69 20.8 33 0.4 26 26 NNE 3 6 30.33 1027 10 16 0.00 0.00
4:55 pm 16:55 Sunny 69 20.8 32 -0.2 25 25 Calm 30.33 1027 10 16 0.00 0.00
5:15 pm 17:15 Sunny 69 20.8 31 -0.5 24 24 WNW 3 6 30.33 1027 10 16 0.00 0.00
5:35 pm 17:35 Sunny 69 20.8 31 -0.5 24 24 ENE 3 6 30.33 1027 10 16 0.00 0.00
5:55 pm 17:55 Sunny 69 20.8 32 0 25 25 NE 3 6 30.33 1027 10 16 0.00 0.00
6:15 pm 18:15 Sunny 69 20.8 31 -0.6 24 24 N 3 6 30.33 1027 10 16 0.00 0.00
6:35 pm 18:35 Sunny 69 20.8 31 -0.7 24 24 N 5 7 30.33 1027 10 16 0.00 0.00
6:55 pm 18:55 Sunny 69 20.8 31 -0.8 24 24 N 6 9 30.33 1027 10 16 0.00 0.00
7:15 pm 19:15 Sunny 69 20.4 27 -2.7 21 21 NNE 3 6 30.33 1027 10 16 0.00 0.00
7:35 pm 19:35 Sunny 64 18 28 -2.3 25 25 NNE 3 6 30.36 1028 10 16 0.00 0.00
7:55 pm 19:55 Sunny 64 18 27 -2.6 25 25 N 3 6 30.36 1028 10 16 0.00 0.00
8:15 pm 20:15 Clear 62 16.4 40 4.3 45 45 Calm 30.39 1029 10 16 0.00 0.00
8:35 pm 20:35 Clear 60 15.3 42 5.8 53 53 Calm 30.39 1029 10 16 0.00 0.00
8:55 pm 20:55 Clear 57 13.8 44 6.4 61 61 Calm 30.39 1029 10 16 0.00 0.00
9:20 pm 21:20 Clear 55 12.5 42 5.7 64 64 N 5 7 30.39 1029 10 16 0.00 0.00
9:35 pm 21:35 Clear 55 12.5 41 5 61 61 Calm 30.39 1029 10 16 0.00 0.00
9:55 pm 21:55 Clear 51 10.5 42 5.6 72 72 Calm 30.39 1029 10 16 0.00 0.00
10:15 pm 22:15 Clear 52 11.2 43 5.9 70 70 Calm 30.39 1029 10 16 0.00 0.00
10:35 pm 22:35 Clear 51 10.6 41 5.2 70 70 Calm 30.39 1029 10 16 0.00 0.00
10:55 pm 22:55 Clear 49 9.6 40 4.6 71 71 Calm 30.39 1029 10 16 0.00 0.00
11:15 pm 23:15 Clear 49 9.7 41 4.8 72 72 NNE 3 6 30.39 1029 10 16 0.00 0.00
11:35 pm 23:35 Clear 49 9.6 42 5.5 76 76 Calm 30.39 1029 10 16 0.00 0.00
11:55 pm 23:55 Clear 49 9.6 41 5.2 74 74 N 3 6 30.36 1028 10 16 0.00 0.00

Powered by AerisWeather